This is the latest recevied weather packets stored in our database for station/object N0MPM-4. If no packets are shown the sender has not sent any weather packets the latest 10 day(s).
| Time | Temp. | Humidity | Pressure | Rain* | Wind** | Luminosity | Snow |
|---|---|---|---|---|---|---|---|
| 1778341757 | 20.56° C | 34% | 1007.4 hPa | 0 mm | - | - | - |
| 1778341457 | 20.56° C | 34% | 1007.2 hPa | 0 mm | - | - | - |
| 1778341157 | 20.56° C | 36% | 1007.3 hPa | 0 mm | - | - | - |
| 1778340857 | 20.56° C | 38% | 1007.2 hPa | 0 mm | - | - | - |
| 1778340557 | 20.56° C | 39% | 1007.1 hPa | 0 mm | - | - | - |
| 1778340257 | 20.56° C | 37% | 1007.1 hPa | 0 mm | - | - | - |
| 1778339957 | 20.56° C | 35% | 1007.1 hPa | 0 mm | - | - | - |
| 1778339657 | 20.56° C | 37% | 1007 hPa | 0 mm | - | - | - |
| 1778339357 | 20° C | 38% | 1006.8 hPa | 0 mm | - | - | - |
| 1778339057 | 20° C | 40% | 1006.7 hPa | 0 mm | - | - | - |
| 1778338757 | 19.44° C | 46% | 1006.7 hPa | 0 mm | - | - | - |
| 1778338457 | 19.44° C | 46% | 1006.7 hPa | 0 mm | - | - | - |
| 1778338157 | 18.89° C | 47% | 1006.7 hPa | 0 mm | - | - | - |
| 1778337857 | 18.89° C | 47% | 1006.4 hPa | 0 mm | - | - | - |
| 1778337557 | 18.89° C | 47% | 1006.4 hPa | 0 mm | - | - | - |
| 1778337257 | 18.33° C | 45% | 1006.5 hPa | 0 mm | - | - | - |
| 1778336957 | 18.33° C | 45% | 1006.5 hPa | 0 mm | - | - | - |
| 1778336657 | 17.78° C | 49% | 1006.3 hPa | 0 mm | - | - | - |
| 1778336357 | 17.78° C | 50% | 1006.2 hPa | 0 mm | - | - | - |
| 1778336057 | 17.22° C | 53% | 1006.1 hPa | 0 mm | - | - | - |
| 1778335757 | 17.22° C | 52% | 1006 hPa | 0 mm | - | - | - |
| 1778335457 | 17.22° C | 51% | 1006 hPa | 0 mm | - | - | - |
| 1778335157 | 17.22° C | 55% | 1006 hPa | 0 mm | - | - | - |
| 1778334857 | 16.67° C | 57% | 1006 hPa | 0 mm | - | - | - |
| 1778334557 | 16.67° C | 60% | 1006 hPa | 0 mm | - | - | - |
* Rain latest hour (hover to see other rain measurements)
** Current wind speed in m/s (hover to see current wind gust speed)